Regional Weather Roundup
Issued by NWS

Home | Current Version | Previous Version | Text Only | Print | Product List | Glossary On
Versions: 1 2 3 4 5 6 7 8 9 10 11 12 13 14 15 16 17 18 19 20 21 22 23 24 25 26 27 28 29 30 31 32 33 34 35 36 37 38 39 40 41 42 43 44 45 46 47 48 49 50
000
ASUS44 KLIX 262014
RWRLA
LOUISIANA WEATHER ROUNDUP
NATIONAL WEATHER SERVICE NEW ORLEANS LA
300 PM CDT MON JUN 26 2017

NOTE: "FAIR" INDICATES FEW OR NO CLOUDS BELOW 12,000 FEET WITH NO
      SIGNIFICANT WEATHER AND/OR OBSTRUCTIONS TO VISIBILITY.
      SKY/WX - SKY CONDITION AND SIGNIFICANT WEATHER.
      TMP - AIR TEMPERATURE.    DP   - DEWPOINT TEMPERATURE.
      RH  - RELATIVE HUMIDITY.  PRES - PRESSURE.
      HX  - HEAT INDEX.         WCI  - WIND CHILL INDEX.

*  THESE STATIONS ARE NOT NWS OR FAA STATIONS AND ARE NOT UNDER
   NWS QUALITY CONTROL.

LAZ040-048-061>063-065-066-069-262100-
SOUTHEAST LOUISIANA

CITY           SKY/WX    TMP DP  RH WIND       PRES   REMARKS
N.O. INTL ARPT MOSUNNY   87  68  52 NE9       30.05F
N.O. LAKEFRONT MOSUNNY   86  68  54 E7        30.06F
N.O. DOWNTOWN*   N/A     85  69  58 NE9         N/A
RESERVE*       FAIR      88  69  53 E10       30.06F
SLIDELL        MOSUNNY   86  67  52 E7        30.05F
BATON ROUGE    SUNNY     86  68  54 NE8       30.06F
BOOTHVILLE     SUNNY     84  76  76 E10       30.06F
BELLE CHASSE   MOSUNNY  N/A N/A N/A E10       30.05R FOG
BOGALUSA*      FAIR      87  63  45 N7        30.08F
GALLIANO*      CLEAR     86  72  62 E8        30.05F
NEW ROADS*       N/A     83  70  64 NE3       30.07F
GONZALES*      FAIR      87  69  54 CALM      30.04F
HAMMOND*       CLOUDY    88  64  45 NE7       30.06F
HOUMA*         PTSUNNY   86  75  70 NE8       30.04F HX  95
PORT FOURCHON* MOCLDY   N/A N/A N/A E12       30.04F

$$

LAZ041-044-053-054-262100-
SOUTHWEST LOUISIANA

CITY           SKY/WX    TMP DP  RH WIND       PRES   REMARKS
LAKE CHARLES   MOSUNNY   86  75  69 E9        30.03F HX  95
LAFAYETTE      PTSUNNY   87  73  62 NE9       30.05F
PATTERSON      LGT RAIN  85  75  72 NE10      30.04F
SALT POINT       N/A     82  75  79 CALM      30.01F
NEW IBERIA     SUNNY     88  72  58 N9        30.04F
CHENAULT AIRPK NOT AVBL

$$

LAZ027-028-262100-
CENTRAL LOUISIANA

CITY           SKY/WX    TMP DP  RH WIND       PRES   REMARKS
FORT POLK      PTSUNNY   86  69  56 NE5       30.05F
ALEXANDRIA INT MOSUNNY   86  67  52 E8        30.05F
ALEXANDRIA     SUNNY     84  68  58 NE5       30.08F

$$

LAZ001-002-262100-
NORTHWEST LOUISIANA

CITY           SKY/WX    TMP DP  RH WIND       PRES   REMARKS
SHREVEPORT     MOSUNNY   87  64  46 E5        30.07F
BARKSDALE AFB  SUNNY     85  64  48 E3        30.08F
DTN SHREVEPORT MOSUNNY   86  64  47 E7        30.08F

$$

LAZ014-016-262100-
NORTHEAST LOUISIANA

CITY           SKY/WX    TMP DP  RH WIND       PRES   REMARKS
MONROE         SUNNY     86  63  45 VRB6      30.10F
TALLULAH       SUNNY     85  63  47 E8        30.09F

$$




USA.gov is the U.S. government's official web portal to all federal, state and local government web resources and services.